Pomona, MO

9:10 AM CDT on August 25, 2016 (GMT -0500)
West Plains Municipal

Weather History for KUNO - May, 2014

Change the Weather History Date:

Friday, May 16, 2014

  Actual Average Record
Temperature  
Mean Temperature 51 °F 65 °F  
Max Temperature 65 °F 77 °F 88 °F (2012)
Min Temperature 36 °F 54 °F 34 °F (1997)
Degree Days  
Heating Degree Days 14 3  
Month to date heating degree days 83 57  
Since 1 July heating degree days 4835 4319  
Cooling Degree Days 0 3  
Month to date cooling degree days 57 32  
Year to date cooling degree days 66 60  
Moisture  
Dew Point 34 °F    
Average Humidity 58    
Maximum Humidity 86    
Minimum Humidity 30    
Precipitation  
Precipitation 0.03 in 0.15 in 0.94 in (2003)
Month to date precipitation 2.67 2.95  
Year to date precipitation 11.84 17.28  
Sea Level Pressure  
Sea Level Pressure 30.10 in    
Wind  
Wind Speed 6 mph (NW)    
Max Wind Speed 20 mph    
Max Gust Speed 28 mph    
Visibility 10 miles    
Events Rain    
T = Trace of Precipitation, MM = Missing Value Source: NWS Daily Summary

Daily Weather History Graph

Daily Weather History Graph

Search for Another Location

Airport or City:

Trip Planner

Search our weather history database for the weather conditions in past years. The results will help you decide how hot, cold, wet, or windy it might be!

Date:

Astronomy

May. 16, 2014 Rise Set
Actual Time 5:59 AM CDT 8:09 PM CDT
Civil Twilight 5:30 AM CDT 8:38 PM CDT
Nautical Twilight 4:54 AM CDT 9:14 PM CDT
Astronomical Twilight 4:16 AM CDT 9:52 PM CDT
Moon 10:16 PM CDT (5/16) 7:41 AM CDT (5/16)
Length of Visible Light 15h 08m
Length of Day
14h 10m
Waning Gibbous, 95% of the Moon is Illuminated
May 16
Waning Gibbous
May 21
Last Quarter
May 28
New
Jun 5
First Quarter
Jun 12
Full

Hourly Weather History & Observations

Time (CDT) Temp. Windchill Dew Point Humidity Pressure Visibility Wind Dir Wind Speed Gust Speed Precip Events Conditions
12:53 AM 39.9 °F - 32.0 °F 73% 30.11 in 10.0 mi Calm Calm - N/A   Clear
1:53 AM 37.9 °F - 32.0 °F 79% 30.10 in 10.0 mi Calm Calm - N/A   Clear
3:53 AM 37.0 °F - 32.0 °F 82% 30.09 in 10.0 mi Calm Calm - N/A   Scattered Clouds
4:53 AM 37.0 °F 34.5 °F 33.1 °F 86% 30.10 in 10.0 mi West 3.5 mph - N/A   Mostly Cloudy
5:53 AM 37.9 °F 34.4 °F 33.1 °F 83% 30.10 in 10.0 mi West 4.6 mph - N/A   Mostly Cloudy
6:53 AM 41.0 °F - 36.0 °F 82% 30.12 in 10.0 mi Calm Calm - N/A   Overcast
7:53 AM 46.0 °F - 36.0 °F 68% 30.12 in 10.0 mi Calm Calm - N/A   Mostly Cloudy
8:53 AM 53.1 °F - 35.1 °F 50% 30.12 in 10.0 mi Variable 3.5 mph - N/A   Clear
9:53 AM 55.9 °F - 30.9 °F 39% 30.11 in 10.0 mi NW 9.2 mph - N/A   Clear
10:53 AM 57.0 °F - 33.1 °F 40% 30.11 in 10.0 mi NW 8.1 mph - N/A   Clear
11:53 AM 60.1 °F - 33.1 °F 36% 30.10 in 10.0 mi NW 13.8 mph 23.0 mph N/A   Clear
12:53 PM 61.0 °F - 32.0 °F 34% 30.09 in 10.0 mi NW 10.4 mph 21.9 mph N/A   Partly Cloudy
1:53 PM 62.1 °F - 30.9 °F 31% 30.07 in 10.0 mi West 10.4 mph 23.0 mph N/A   Partly Cloudy
3:53 PM 64.0 °F - 32.0 °F 30% 30.06 in 10.0 mi West 11.5 mph 20.7 mph N/A   Clear
4:53 PM 62.1 °F - 32.0 °F 32% 30.06 in 10.0 mi WNW 9.2 mph 17.3 mph N/A   Clear
5:53 PM 60.1 °F - 32.0 °F 35% 30.06 in 10.0 mi WNW 6.9 mph - N/A   Scattered Clouds
6:53 PM 59.0 °F - 32.0 °F 36% 30.07 in 10.0 mi WNW 4.6 mph - N/A   Overcast
7:53 PM 55.9 °F - 35.1 °F 45% 30.09 in 10.0 mi WNW 3.5 mph - N/A   Overcast
8:53 PM 55.0 °F - 32.0 °F 42% 30.09 in 10.0 mi NW 12.7 mph - N/A   Overcast
9:53 PM 53.1 °F - 33.1 °F 47% 30.12 in 10.0 mi North 8.1 mph - N/A   Overcast
10:53 PM 48.9 °F - 37.9 °F 66% 30.15 in 10.0 mi North 8.1 mph - 0.00 in Rain Light Rain
11:53 PM 46.0 °F 44.8 °F 42.1 °F 86% 30.15 in 9.0 mi North 3.5 mph - 0.01 in Rain Light Rain